GSAT0210 (GALILEO 13)

Last updated on Jan. 15, 2021, 6:30 a.m. UTC

1 41550U 16030B   21013.78078806 -.00000007  00000-0  00000-0 0  9994
2 41550  56.1310 276.1840 0003379 314.7686  45.2784  1.70474453 28902
UTC
Height (km)
Latitude
Longitude
Inclination
Orbital Period
UTC large
Height (km)
Speed (km/s)
/
Latitude / Longitude
Inclination (degrees)
Orbital Period (minutes)
Azimuth
Elevation
Range (km)
Doppler Factor
iOS Compass Heading
iOS Angle

Next 30 passes for location: Hong Kong

Rise time Rise Azimuth (degrees) Set time Set Azimuth (degrees) Duration Max altitude (degrees)

No matching passes for this satellites